Time,TemperatureF,DewpointF,PressureIn,WindDirection,WindDirectionDegrees,WindSpeedMPH,WindSpeedGustMPH,Humidity,HourlyPrecipIn,Conditions,Clouds,dailyrainin,SoftwareType,DateUTC
2013-02-26 00:02:00,20.8,5.9,30.09,NW,304,0.0,4.0,52,0.00,,,0.00,meteohub,2013-02-26 07:02:00,
2013-02-26 00:07:00,21.0,6.6,30.09,NNW,335,4.0,4.0,53,0.00,,,0.00,meteohub,2013-02-26 07:07:00,
2013-02-26 00:12:00,21.0,5.7,30.09,NNW,330,3.0,5.0,51,0.00,,,0.00,meteohub,2013-02-26 07:12:00,
2013-02-26 00:17:00,21.4,5.2,30.08,NNW,339,2.0,5.0,49,0.00,,,0.00,meteohub,2013-02-26 07:17:00,
2013-02-26 00:22:00,20.8,5.9,30.08,NW,315,1.0,5.0,52,0.00,,,0.00,meteohub,2013-02-26 07:22:00,
2013-02-26 00:27:00,20.5,6.1,30.08,NW,320,1.0,4.0,53,0.00,,,0.00,meteohub,2013-02-26 07:27:00,
2013-02-26 00:32:00,20.7,6.3,30.07,NNW,328,1.0,4.0,53,0.00,,,0.00,meteohub,2013-02-26 07:32:00,
2013-02-26 00:37:00,20.7,6.6,30.07,NW,322,2.0,4.0,54,0.00,,,0.00,meteohub,2013-02-26 07:37:00,
2013-02-26 00:42:00,20.1,7.0,30.07,NNW,328,2.0,4.0,56,0.00,,,0.00,meteohub,2013-02-26 07:42:00,
2013-02-26 00:47:00,19.4,7.3,30.07,NW,319,3.0,4.0,59,0.00,,,0.00,meteohub,2013-02-26 07:47:00,
2013-02-26 00:52:00,18.7,7.5,30.07,NNW,330,1.0,4.0,61,0.00,,,0.00,meteohub,2013-02-26 07:52:00,
2013-02-26 00:57:00,18.1,7.3,30.06,NW,310,1.0,4.0,62,0.00,,,0.00,meteohub,2013-02-26 07:57:00,
2013-02-26 01:02:00,18.1,7.3,30.06,WNW,287,1.0,5.0,62,0.00,,,0.00,meteohub,2013-02-26 08:02:00,
2013-02-26 01:07:00,18.1,7.0,30.06,NNW,328,7.0,7.0,61,0.00,,,0.00,meteohub,2013-02-26 08:07:00,
2013-02-26 01:12:00,18.3,6.8,30.06,NW,326,2.0,8.0,60,0.00,,,0.00,meteohub,2013-02-26 08:12:00,
2013-02-26 01:17:00,18.1,6.6,30.06,NW,321,2.0,8.0,60,0.00,,,0.00,meteohub,2013-02-26 08:17:00,
2013-02-26 01:22:00,18.9,7.0,30.06,NNW,332,4.0,8.0,59,0.00,,,0.00,meteohub,2013-02-26 08:22:00,
2013-02-26 01:27:00,18.9,6.4,30.05,NNW,330,2.0,6.0,58,0.00,,,0.00,meteohub,2013-02-26 08:27:00,
2013-02-26 01:32:00,19.0,6.3,30.05,WNW,301,2.0,7.0,57,0.00,,,0.00,meteohub,2013-02-26 08:32:00,
2013-02-26 01:37:00,18.7,6.4,30.05,WNW,301,2.0,7.0,58,0.00,,,0.00,meteohub,2013-02-26 08:37:00,
2013-02-26 01:42:00,18.3,6.1,30.05,NW,304,4.0,7.0,58,0.00,,,0.00,meteohub,2013-02-26 08:42:00,
2013-02-26 01:47:00,18.3,5.7,30.05,NNW,327,2.0,7.0,57,0.00,,,0.00,meteohub,2013-02-26 08:47:00,
2013-02-26 01:52:00,18.1,5.5,30.04,NNW,328,6.0,7.0,57,0.00,,,0.00,meteohub,2013-02-26 08:52:00,
2013-02-26 01:57:00,18.3,5.7,30.04,NW,323,8.0,8.0,57,0.00,,,0.00,meteohub,2013-02-26 08:57:00,
2013-02-26 02:02:00,18.5,5.4,30.04,NW,314,6.0,8.0,56,0.00,,,0.00,meteohub,2013-02-26 09:02:00,
2013-02-26 02:07:00,18.7,5.2,30.04,NW,321,2.0,8.0,55,0.00,,,0.00,meteohub,2013-02-26 09:07:00,
2013-02-26 02:12:00,18.5,5.0,30.03,NW,322,2.0,8.0,55,0.00,,,0.00,meteohub,2013-02-26 09:12:00,
2013-02-26 02:17:00,18.0,5.0,30.02,NW,319,3.0,7.0,56,0.00,,,0.00,meteohub,2013-02-26 09:17:00,
2013-02-26 02:22:00,18.0,5.0,30.02,NW,310,2.0,6.0,56,0.00,,,0.00,meteohub,2013-02-26 09:22:00,
2013-02-26 02:27:00,17.8,4.8,30.02,WNW,300,4.0,5.0,56,0.00,,,0.00,meteohub,2013-02-26 09:27:00,
2013-02-26 02:32:00,18.1,4.6,30.03,WNW,287,1.0,5.0,55,0.00,,,0.00,meteohub,2013-02-26 09:32:00,
2013-02-26 02:37:00,18.1,4.6,30.03,NNW,332,1.0,5.0,55,0.00,,,0.00,meteohub,2013-02-26 09:37:00,
2013-02-26 02:42:00,18.3,4.5,30.03,NW,323,2.0,5.0,54,0.00,,,0.00,meteohub,2013-02-26 09:42:00,
2013-02-26 02:47:00,18.1,3.9,30.03,WNW,296,1.0,4.0,53,0.00,,,0.00,meteohub,2013-02-26 09:47:00,
2013-02-26 02:52:00,18.0,4.5,30.02,WNW,298,2.0,4.0,55,0.00,,,0.00,meteohub,2013-02-26 09:52:00,
2013-02-26 03:04:00,18.5,4.6,30.01,NW,308,4.0,4.0,54,0.00,,,0.00,meteohub,2013-02-26 10:04:00,
2013-02-26 03:10:00,18.1,4.3,30.01,NNW,342,3.0,7.0,54,0.00,,,0.00,meteohub,2013-02-26 10:10:00,
2013-02-26 03:15:00,17.4,4.1,30.00,NNW,335,4.0,7.0,55,0.00,,,0.00,meteohub,2013-02-26 10:15:00,
2013-02-26 03:21:00,17.1,4.1,30.01,NW,304,3.0,6.0,56,0.00,,,0.00,meteohub,2013-02-26 10:21:00,
2013-02-26 03:26:00,16.5,3.9,30.01,NW,326,2.0,6.0,57,0.00,,,0.00,meteohub,2013-02-26 10:26:00,
2013-02-26 03:32:00,16.2,3.9,30.00,NW,305,2.0,6.0,58,0.00,,,0.00,meteohub,2013-02-26 10:32:00,
2013-02-26 03:37:00,16.3,3.7,30.00,WNW,284,1.0,6.0,57,0.00,,,0.00,meteohub,2013-02-26 10:37:00,
2013-02-26 03:42:00,16.3,4.1,30.00,WNW,285,5.0,6.0,58,0.00,,,0.00,meteohub,2013-02-26 10:42:00,
2013-02-26 03:47:00,16.9,4.3,30.00,West,267,3.0,6.0,57,0.00,,,0.00,meteohub,2013-02-26 10:47:00,
2013-02-26 03:52:00,17.8,4.3,29.99,WNW,288,2.0,5.0,55,0.00,,,0.00,meteohub,2013-02-26 10:52:00,
2013-02-26 03:57:00,18.3,4.5,29.99,WNW,301,1.0,5.0,54,0.00,,,0.00,meteohub,2013-02-26 10:57:00,
2013-02-26 04:02:00,18.9,4.6,29.99,NW,321,1.0,5.0,53,0.00,,,0.00,meteohub,2013-02-26 11:02:00,
2013-02-26 04:07:00,19.4,4.6,29.99,NW,319,0.0,3.0,52,0.00,,,0.00,meteohub,2013-02-26 11:07:00,
2013-02-26 04:12:00,19.8,4.6,29.99,SSE,153,2.0,2.0,51,0.00,,,0.00,meteohub,2013-02-26 11:12:00,
2013-02-26 04:17:00,18.9,4.6,29.99,SSE,149,0.0,3.0,53,0.00,,,0.00,meteohub,2013-02-26 11:17:00,
2013-02-26 04:22:00,18.9,4.6,29.98,NNW,348,1.0,3.0,53,0.00,,,0.00,meteohub,2013-02-26 11:22:00,
2013-02-26 04:27:00,18.7,4.5,29.98,NNW,348,0.0,3.0,53,0.00,,,0.00,meteohub,2013-02-26 11:27:00,
2013-02-26 04:32:00,18.7,4.8,29.98,SW,229,1.0,2.0,54,0.00,,,0.00,meteohub,2013-02-26 11:32:00,
2013-02-26 04:37:00,18.9,4.6,29.98,SW,236,0.0,2.0,53,0.00,,,0.00,meteohub,2013-02-26 11:37:00,
2013-02-26 04:42:00,18.7,4.8,29.98,ESE,118,1.0,2.0,54,0.00,,,0.00,meteohub,2013-02-26 11:42:00,
2013-02-26 04:47:00,18.7,4.8,29.97,ENE,68,0.0,2.0,54,0.00,,,0.00,meteohub,2013-02-26 11:47:00,
2013-02-26 04:52:00,18.3,4.1,29.97,ENE,70,0.0,3.0,53,0.00,,,0.00,meteohub,2013-02-26 11:52:00,
2013-02-26 04:57:00,17.1,4.1,29.97,ENE,65,0.0,3.0,56,0.00,,,0.00,meteohub,2013-02-26 11:57:00,
2013-02-26 05:02:00,17.2,4.3,29.97,North,3,1.0,3.0,56,0.00,,,0.00,meteohub,2013-02-26 12:02:00,
2013-02-26 05:07:00,16.9,3.9,29.97,NW,312,1.0,1.0,56,0.00,,,0.00,meteohub,2013-02-26 12:07:00,
2013-02-26 05:12:00,16.2,3.9,29.97,NW,321,1.0,2.0,58,0.00,,,0.00,meteohub,2013-02-26 12:12:00,
2013-02-26 05:17:00,16.5,4.3,29.96,NW,322,2.0,2.0,58,0.00,,,0.00,meteohub,2013-02-26 12:17:00,
2013-02-26 05:22:00,16.9,4.3,29.96,NW,323,3.0,3.0,57,0.00,,,0.00,meteohub,2013-02-26 12:22:00,
2013-02-26 05:27:00,16.9,3.9,29.96,NNW,328,2.0,4.0,56,0.00,,,0.00,meteohub,2013-02-26 12:27:00,
2013-02-26 05:32:00,16.5,3.9,29.96,North,359,3.0,4.0,57,0.00,,,0.00,meteohub,2013-02-26 12:32:00,
2013-02-26 05:37:00,16.3,3.7,29.96,NNW,341,4.0,5.0,57,0.00,,,0.00,meteohub,2013-02-26 12:37:00,
2013-02-26 05:42:00,16.0,3.7,29.96,NNW,333,5.0,5.0,58,0.00,,,0.00,meteohub,2013-02-26 12:42:00,
2013-02-26 05:47:00,15.3,3.6,29.96,NNW,328,4.0,6.0,59,0.00,,,0.00,meteohub,2013-02-26 12:47:00,
2013-02-26 05:52:00,14.9,3.2,29.96,NW,319,2.0,6.0,59,0.00,,,0.00,meteohub,2013-02-26 12:52:00,
2013-02-26 05:57:00,14.5,3.6,29.96,NW,308,2.0,6.0,61,0.00,,,0.00,meteohub,2013-02-26 12:57:00,
2013-02-26 06:02:00,14.4,3.7,29.96,NW,305,1.0,6.0,62,0.00,,,0.00,meteohub,2013-02-26 13:02:00,
2013-02-26 06:07:00,13.5,2.8,29.96,NW,304,2.0,6.0,62,0.00,,,0.00,meteohub,2013-02-26 13:07:00,
2013-02-26 06:12:00,13.3,3.4,29.97,WNW,300,2.0,6.0,64,0.00,,,0.00,meteohub,2013-02-26 13:12:00,
2013-02-26 06:17:00,13.8,3.9,29.96,WNW,299,2.0,5.0,64,0.00,,,0.00,meteohub,2013-02-26 13:17:00,
2013-02-26 06:22:00,14.2,3.9,29.96,NW,319,1.0,4.0,63,0.00,,,0.00,meteohub,2013-02-26 13:22:00,
2013-02-26 06:27:00,14.9,4.6,29.96,NNE,13,2.0,3.0,63,0.00,,,0.00,meteohub,2013-02-26 13:27:00,
2013-02-26 06:32:00,15.4,4.5,29.95,NW,316,2.0,3.0,61,0.00,,,0.00,meteohub,2013-02-26 13:32:00,
2013-02-26 06:37:00,15.4,4.5,29.95,NNW,331,1.0,3.0,61,0.00,,,0.00,meteohub,2013-02-26 13:37:00,
2013-02-26 06:42:00,15.6,4.6,29.95,WNW,302,1.0,3.0,61,0.00,,,0.00,meteohub,2013-02-26 13:42:00,
2013-02-26 06:47:00,15.6,4.6,29.95,WNW,283,2.0,3.0,61,0.00,,,0.00,meteohub,2013-02-26 13:47:00,
2013-02-26 06:52:00,15.4,4.5,29.95,NNW,328,3.0,3.0,61,0.00,,,0.00,meteohub,2013-02-26 13:52:00,
2013-02-26 06:57:00,15.4,4.5,29.96,NNW,328,2.0,4.0,61,0.00,,,0.00,meteohub,2013-02-26 13:57:00,
2013-02-26 07:02:00,15.3,4.3,29.95,WNW,300,1.0,4.0,61,0.00,,,0.00,meteohub,2013-02-26 14:02:00,
2013-02-26 07:07:00,15.3,4.3,29.95,WNW,294,3.0,4.0,61,0.00,,,0.00,meteohub,2013-02-26 14:07:00,
2013-02-26 07:12:00,15.4,4.8,29.95,WNW,296,3.0,5.0,62,0.00,,,0.00,meteohub,2013-02-26 14:12:00,
2013-02-26 07:17:00,15.8,4.8,29.95,West,264,2.0,5.0,61,0.00,,,0.00,meteohub,2013-02-26 14:17:00,
2013-02-26 07:22:00,15.6,4.6,29.95,WNW,287,0.0,4.0,61,0.00,,,0.00,meteohub,2013-02-26 14:22:00,
2013-02-26 07:27:00,15.6,4.6,29.95,WNW,287,0.0,4.0,61,0.00,,,0.00,meteohub,2013-02-26 14:27:00,
2013-02-26 07:32:00,15.6,5.0,29.95,North,6,1.0,4.0,62,0.00,,,0.00,meteohub,2013-02-26 14:32:00,
2013-02-26 07:37:00,15.8,4.8,29.95,NNW,342,1.0,2.0,61,0.00,,,0.00,meteohub,2013-02-26 14:37:00,
2013-02-26 07:42:00,15.6,5.0,29.95,North,8,2.0,2.0,62,0.00,,,0.00,meteohub,2013-02-26 14:42:00,
2013-02-26 07:47:00,16.0,4.8,29.94,North,6,0.0,2.0,61,0.00,,,0.00,meteohub,2013-02-26 14:47:00,
2013-02-26 07:52:00,16.3,4.8,29.95,NNE,26,3.0,3.0,60,0.00,,,0.00,meteohub,2013-02-26 14:52:00,
2013-02-26 07:57:00,16.0,4.8,29.95,NE,43,1.0,5.0,61,0.00,,,0.00,meteohub,2013-02-26 14:57:00,
2013-02-26 08:02:00,13.8,3.9,29.95,NNW,339,1.0,5.0,64,0.00,,,0.00,meteohub,2013-02-26 15:02:00,
2013-02-26 08:07:00,12.9,4.1,29.95,NW,314,2.0,5.0,67,0.00,,,0.00,meteohub,2013-02-26 15:07:00,
2013-02-26 08:12:00,13.3,4.5,29.95,NW,321,4.0,5.0,67,0.00,,,0.00,meteohub,2013-02-26 15:12:00,
2013-02-26 08:17:00,13.8,4.6,29.95,NW,323,3.0,6.0,66,0.00,,,0.00,meteohub,2013-02-26 15:17:00,
2013-02-26 08:22:00,14.5,5.0,29.95,NW,304,2.0,6.0,65,0.00,,,0.00,meteohub,2013-02-26 15:22:00,
2013-02-26 08:27:00,15.3,5.4,29.95,NW,324,2.0,6.0,64,0.00,,,0.00,meteohub,2013-02-26 15:27:00,
2013-02-26 08:32:00,16.0,5.5,29.95,NNW,333,2.0,5.0,63,0.00,,,0.00,meteohub,2013-02-26 15:32:00,
2013-02-26 08:37:00,16.3,5.5,29.94,NW,312,1.0,5.0,62,0.00,,,0.00,meteohub,2013-02-26 15:37:00,
2013-02-26 08:42:00,17.1,5.9,29.94,NW,321,2.0,5.0,61,0.00,,,0.00,meteohub,2013-02-26 15:42:00,
2013-02-26 08:47:00,17.8,6.3,29.94,NNW,331,5.0,5.0,60,0.00,,,0.00,meteohub,2013-02-26 15:47:00,
2013-02-26 08:52:00,18.1,6.6,29.94,NW,322,4.0,6.0,60,0.00,,,0.00,meteohub,2013-02-26 15:52:00,
2013-02-26 08:57:00,18.0,6.1,29.94,North,11,4.0,8.0,59,0.00,,,0.00,meteohub,2013-02-26 15:57:00,
2013-02-26 09:02:00,17.8,5.9,29.93,NNW,328,4.0,9.0,59,0.00,,,0.00,meteohub,2013-02-26 16:02:00,
2013-02-26 09:07:00,18.0,6.4,29.93,NW,324,4.0,9.0,60,0.00,,,0.00,meteohub,2013-02-26 16:07:00,
2013-02-26 09:12:00,18.1,6.6,29.93,NNW,333,5.0,6.0,60,0.00,,,0.00,meteohub,2013-02-26 16:12:00,
2013-02-26 09:17:00,18.5,7.0,29.93,NNW,328,3.0,7.0,60,0.00,,,0.00,meteohub,2013-02-26 16:17:00,
2013-02-26 09:22:00,18.9,7.3,29.93,NNW,328,4.0,7.0,60,0.00,,,0.00,meteohub,2013-02-26 16:22:00,
2013-02-26 09:27:00,19.2,7.7,29.92,NW,324,2.0,6.0,60,0.00,,,0.00,meteohub,2013-02-26 16:27:00,
2013-02-26 09:32:00,19.8,8.1,29.92,NW,321,2.0,7.0,60,0.00,,,0.00,meteohub,2013-02-26 16:32:00,
2013-02-26 09:37:00,20.3,8.2,29.92,North,8,3.0,7.0,59,0.00,,,0.00,meteohub,2013-02-26 16:37:00,
2013-02-26 09:42:00,20.7,9.0,29.92,North,356,1.0,7.0,60,0.00,,,0.00,meteohub,2013-02-26 16:42:00,
2013-02-26 09:47:00,21.2,9.5,29.91,North,10,8.0,8.0,60,0.00,,,0.00,meteohub,2013-02-26 16:47:00,
2013-02-26 09:52:00,21.6,9.9,29.91,NNW,336,2.0,9.0,60,0.00,,,0.00,meteohub,2013-02-26 16:52:00,
2013-02-26 09:57:00,22.1,10.4,29.91,NW,316,4.0,11.0,60,0.00,,,0.00,meteohub,2013-02-26 16:57:00,
2013-02-26 10:02:00,22.5,10.2,29.91,NNE,30,1.0,11.0,59,0.00,,,0.00,meteohub,2013-02-26 17:02:00,
2013-02-26 10:07:00,22.5,9.9,29.91,NNW,338,4.0,9.0,58,0.00,,,0.00,meteohub,2013-02-26 17:07:00,
2013-02-26 10:12:00,21.9,9.9,29.91,NNW,331,1.0,7.0,59,0.00,,,0.00,meteohub,2013-02-26 17:12:00,
2013-02-26 10:17:00,22.3,10.2,29.91,NNE,21,4.0,7.0,59,0.00,,,0.00,meteohub,2013-02-26 17:17:00,
2013-02-26 10:22:00,22.5,10.2,29.91,ENE,58,3.0,5.0,59,0.00,,,0.00,meteohub,2013-02-26 17:22:00,
2013-02-26 10:27:00,22.8,10.2,29.91,ENE,58,0.0,5.0,58,0.00,,,0.00,meteohub,2013-02-26 17:27:00,
2013-02-26 10:32:00,23.7,10.4,29.90,NE,50,2.0,5.0,56,0.00,,,0.00,meteohub,2013-02-26 17:32:00,
2013-02-26 10:37:00,24.4,9.7,29.90,NNW,335,2.0,4.0,53,0.00,,,0.00,meteohub,2013-02-26 17:37:00,
2013-02-26 10:42:00,24.8,9.7,29.90,North,357,0.0,4.0,52,0.00,,,0.00,meteohub,2013-02-26 17:42:00,
2013-02-26 10:47:00,25.0,9.9,29.90,NNW,328,2.0,6.0,52,0.00,,,0.00,meteohub,2013-02-26 17:47:00,
2013-02-26 10:52:00,24.6,9.5,29.90,NNW,333,2.0,6.0,52,0.00,,,0.00,meteohub,2013-02-26 17:52:00,
2013-02-26 10:57:00,24.4,9.7,29.90,NNW,340,7.0,7.0,53,0.00,,,0.00,meteohub,2013-02-26 17:57:00,
2013-02-26 11:02:00,23.7,9.5,29.90,NNW,331,5.0,8.0,54,0.00,,,0.00,meteohub,2013-02-26 18:02:00,
2013-02-26 11:07:00,23.5,11.7,29.90,NNE,18,7.0,8.0,60,0.00,,,0.00,meteohub,2013-02-26 18:07:00,
2013-02-26 11:12:00,23.5,12.0,29.90,NW,317,2.0,11.0,61,0.00,,,0.00,meteohub,2013-02-26 18:12:00,
2013-02-26 11:17:00,23.5,12.0,29.90,NNW,329,4.0,11.0,61,0.00,,,0.00,meteohub,2013-02-26 18:17:00,
2013-02-26 11:22:00,23.4,10.8,29.90,NW,326,0.0,11.0,58,0.00,,,0.00,meteohub,2013-02-26 18:22:00,
2013-02-26 11:27:00,23.9,11.3,29.90,NW,323,2.0,9.0,58,0.00,,,0.00,meteohub,2013-02-26 18:27:00,
2013-02-26 11:32:00,23.7,11.8,29.90,WSW,253,1.0,5.0,60,0.00,,,0.00,meteohub,2013-02-26 18:32:00,
2013-02-26 11:37:00,24.1,13.3,29.90,SW,236,3.0,8.0,63,0.00,,,0.00,meteohub,2013-02-26 18:37:00,
2013-02-26 11:42:00,23.7,12.2,29.90,West,259,2.0,8.0,61,0.00,,,0.00,meteohub,2013-02-26 18:42:00,
2013-02-26 11:47:00,23.9,12.4,29.90,WNW,300,1.0,8.0,61,0.00,,,0.00,meteohub,2013-02-26 18:47:00,
2013-02-26 11:52:00,24.6,12.4,29.89,SW,228,5.0,8.0,59,0.00,,,0.00,meteohub,2013-02-26 18:52:00,
2013-02-26 11:57:00,25.7,12.9,29.89,WSW,255,4.0,8.0,58,0.00,,,0.00,meteohub,2013-02-26 18:57:00,
2013-02-26 12:02:00,25.3,13.5,29.89,West,274,2.0,6.0,60,0.00,,,0.00,meteohub,2013-02-26 19:02:00,
2013-02-26 12:07:00,25.0,13.5,29.90,WNW,291,6.0,8.0,61,0.00,,,0.00,meteohub,2013-02-26 19:07:00,
2013-02-26 12:12:00,25.7,14.2,29.89,NW,309,5.0,8.0,61,0.00,,,0.00,meteohub,2013-02-26 19:12:00,
2013-02-26 12:17:00,25.5,13.1,29.89,NNW,333,6.0,8.0,59,0.00,,,0.00,meteohub,2013-02-26 19:17:00,
2013-02-26 12:22:00,25.2,13.6,29.89,NNE,26,10.0,10.0,61,0.00,,,0.00,meteohub,2013-02-26 19:22:00,
2013-02-26 12:27:00,24.1,14.7,29.90,NNE,14,9.0,16.0,67,0.00,,,0.00,meteohub,2013-02-26 19:27:00,
2013-02-26 12:32:00,22.6,16.0,29.90,NE,36,15.0,18.0,75,0.00,,,0.00,meteohub,2013-02-26 19:32:00,
2013-02-26 12:37:00,21.4,15.8,29.90,NNW,328,12.0,22.0,79,0.00,,,0.00,meteohub,2013-02-26 19:37:00,
2013-02-26 12:42:00,21.0,15.8,29.90,NNE,19,13.0,22.0,80,0.00,,,0.00,meteohub,2013-02-26 19:42:00,
2013-02-26 12:47:00,21.0,16.2,29.90,North,354,8.0,22.0,81,0.00,,,0.00,meteohub,2013-02-26 19:47:00,
2013-02-26 12:52:00,21.0,16.3,29.90,NNE,23,13.0,18.0,82,0.00,,,0.00,meteohub,2013-02-26 19:52:00,
2013-02-26 12:57:00,21.4,16.5,29.89,NNW,342,3.0,17.0,81,0.00,,,0.00,meteohub,2013-02-26 19:57:00,
2013-02-26 13:02:00,22.1,15.6,29.89,NNE,14,9.0,14.0,76,0.00,,,0.00,meteohub,2013-02-26 20:02:00,
2013-02-26 13:07:00,22.5,15.1,29.89,NNW,333,4.0,16.0,73,0.00,,,0.00,meteohub,2013-02-26 20:07:00,
2013-02-26 13:12:00,22.8,15.4,29.89,NNW,339,9.0,16.0,73,0.00,,,0.00,meteohub,2013-02-26 20:12:00,
2013-02-26 13:17:00,23.4,15.4,29.90,North,353,9.0,16.0,71,0.00,,,0.00,meteohub,2013-02-26 20:17:00,
2013-02-26 13:22:00,23.2,14.9,29.90,NNE,14,10.0,15.0,70,0.00,,,0.00,meteohub,2013-02-26 20:22:00,
2013-02-26 13:27:00,23.0,14.7,29.90,NNW,329,6.0,15.0,70,0.00,,,0.00,meteohub,2013-02-26 20:27:00,
2013-02-26 13:32:00,22.8,14.9,29.90,North,6,15.0,15.0,71,0.00,,,0.00,meteohub,2013-02-26 20:32:00,
2013-02-26 13:37:00,22.6,14.4,29.90,North,1,8.0,15.0,70,0.00,,,0.00,meteohub,2013-02-26 20:37:00,
2013-02-26 13:42:00,22.6,14.9,29.90,North,11,10.0,17.0,72,0.00,,,0.00,meteohub,2013-02-26 20:42:00,
2013-02-26 13:47:00,22.8,14.5,29.90,North,0,9.0,17.0,70,0.00,,,0.00,meteohub,2013-02-26 20:47:00,
2013-02-26 13:52:00,23.4,12.9,29.90,NW,318,11.0,17.0,64,0.00,,,0.00,meteohub,2013-02-26 20:52:00,
2013-02-26 13:57:00,23.5,12.0,29.91,NNW,337,13.0,16.0,61,0.00,,,0.00,meteohub,2013-02-26 20:57:00,
2013-02-26 14:03:00,23.7,11.5,29.91,NNW,336,15.0,16.0,59,0.00,,,0.00,meteohub,2013-02-26 21:03:00,
2013-02-26 14:08:00,23.5,10.6,29.91,NNW,329,21.0,25.0,57,0.00,,,0.00,meteohub,2013-02-26 21:08:00,
2013-02-26 14:14:00,23.5,12.7,29.91,NW,322,7.0,25.0,63,0.00,,,0.00,meteohub,2013-02-26 21:14:00,
2013-02-26 14:19:00,23.7,12.6,29.91,NW,316,3.0,25.0,62,0.00,,,0.00,meteohub,2013-02-26 21:19:00,
2013-02-26 14:25:00,23.5,12.4,29.92,NW,316,6.0,22.0,62,0.00,,,0.00,meteohub,2013-02-26 21:25:00,
2013-02-26 14:30:00,23.5,14.2,29.92,ENE,63,7.0,16.0,67,0.00,,,0.00,meteohub,2013-02-26 21:30:00,
2013-02-26 14:36:00,23.4,14.0,29.92,WNW,299,8.0,11.0,67,0.00,,,0.00,meteohub,2013-02-26 21:36:00,
2013-02-26 14:41:00,23.0,14.0,29.92,West,280,4.0,11.0,68,0.00,,,0.00,meteohub,2013-02-26 21:41:00,
2013-02-26 14:47:00,23.0,15.1,29.93,NW,322,3.0,11.0,71,0.00,,,0.00,meteohub,2013-02-26 21:47:00,
2013-02-26 14:52:00,22.8,15.1,29.93,NW,308,4.0,10.0,72,0.00,,,0.00,meteohub,2013-02-26 21:52:00,
2013-02-26 14:57:00,23.2,14.9,29.93,WNW,288,7.0,9.0,70,0.00,,,0.00,meteohub,2013-02-26 21:57:00,
2013-02-26 15:02:00,23.2,14.5,29.94,WNW,295,3.0,9.0,69,0.00,,,0.00,meteohub,2013-02-26 22:02:00,
2013-02-26 15:07:00,23.2,14.2,29.94,WNW,302,5.0,9.0,68,0.00,,,0.00,meteohub,2013-02-26 22:07:00,
2013-02-26 15:12:00,23.5,14.2,29.94,NNW,346,5.0,9.0,67,0.00,,,0.00,meteohub,2013-02-26 22:12:00,
2013-02-26 15:17:00,23.7,12.2,29.94,NW,322,10.0,13.0,61,0.00,,,0.00,meteohub,2013-02-26 22:17:00,
2013-02-26 15:22:00,24.1,11.5,29.94,NW,315,6.0,13.0,58,0.00,,,0.00,meteohub,2013-02-26 22:22:00,
2013-02-26 15:27:00,24.1,12.2,29.94,NNW,330,8.0,13.0,60,0.00,,,0.00,meteohub,2013-02-26 22:27:00,
2013-02-26 15:32:00,24.3,10.8,29.94,NW,308,4.0,13.0,56,0.00,,,0.00,meteohub,2013-02-26 22:32:00,
2013-02-26 15:37:00,24.4,12.2,29.95,NNW,342,10.0,11.0,59,0.00,,,0.00,meteohub,2013-02-26 22:37:00,
2013-02-26 15:42:00,24.6,12.0,29.95,NNW,328,3.0,11.0,58,0.00,,,0.00,meteohub,2013-02-26 22:42:00,
2013-02-26 15:47:00,24.6,11.1,29.96,NNW,331,9.0,10.0,56,0.00,,,0.00,meteohub,2013-02-26 22:47:00,
2013-02-26 15:52:00,24.6,7.3,29.96,NNW,337,13.0,13.0,47,0.00,,,0.00,meteohub,2013-02-26 22:52:00,
2013-02-26 15:57:00,24.3,7.3,29.96,NW,322,15.0,19.0,48,0.00,,,0.00,meteohub,2013-02-26 22:57:00,
2013-02-26 16:02:00,23.7,7.3,29.96,NW,317,16.0,25.0,49,0.00,,,0.00,meteohub,2013-02-26 23:02:00,
2013-02-26 16:07:00,23.5,7.7,29.96,NNW,333,23.0,25.0,50,0.00,,,0.00,meteohub,2013-02-26 23:07:00,
2013-02-26 16:12:00,22.8,8.6,29.97,NNW,327,16.0,30.0,54,0.00,,,0.00,meteohub,2013-02-26 23:12:00,
2013-02-26 16:17:00,22.6,8.1,29.97,NNW,329,15.0,30.0,53,0.00,,,0.00,meteohub,2013-02-26 23:17:00,
2013-02-26 16:22:00,22.6,8.1,29.97,NNW,339,18.0,30.0,53,0.00,,,0.00,meteohub,2013-02-26 23:22:00,
2013-02-26 16:27:00,22.5,7.9,29.98,North,351,18.0,27.0,53,0.00,,,0.00,meteohub,2013-02-26 23:27:00,
2013-02-26 16:32:00,22.3,8.2,29.98,NNW,330,18.0,31.0,54,0.00,,,0.00,meteohub,2013-02-26 23:32:00,
2013-02-26 16:37:00,22.3,8.2,29.99,NNW,332,17.0,31.0,54,0.00,,,0.00,meteohub,2013-02-26 23:37:00,
2013-02-26 16:42:00,21.9,7.3,29.99,NNW,331,24.0,27.0,53,0.00,,,0.00,meteohub,2013-02-26 23:42:00,
2013-02-26 16:47:00,21.7,6.8,30.00,NNW,329,16.0,28.0,52,0.00,,,0.00,meteohub,2013-02-26 23:47:00,
2013-02-26 16:52:00,21.6,7.5,30.00,NW,315,15.0,28.0,54,0.00,,,0.00,meteohub,2013-02-26 23:52:00,
2013-02-26 16:57:00,21.6,7.2,30.01,NNE,23,17.0,28.0,53,0.00,,,0.00,meteohub,2013-02-26 23:57:00,
2013-02-26 17:02:00,21.6,7.2,30.01,NNW,328,14.0,27.0,53,0.00,,,0.00,meteohub,2013-02-27 00:02:00,
2013-02-26 17:07:00,21.6,7.2,30.02,NNW,330,13.0,26.0,53,0.00,,,0.00,meteohub,2013-02-27 00:07:00,
2013-02-26 17:12:00,21.6,7.2,30.02,WNW,300,13.0,26.0,53,0.00,,,0.00,meteohub,2013-02-27 00:12:00,
2013-02-26 17:17:00,21.4,6.4,30.03,NNW,333,17.0,25.0,52,0.00,,,0.00,meteohub,2013-02-27 00:17:00,
2013-02-26 17:22:00,21.4,7.0,30.04,NW,317,16.0,25.0,53,0.00,,,0.00,meteohub,2013-02-27 00:22:00,
2013-02-26 17:27:00,21.4,7.0,30.04,NW,307,11.0,25.0,53,0.00,,,0.00,meteohub,2013-02-27 00:27:00,
2013-02-26 17:32:00,21.4,7.3,30.04,NNW,337,11.0,24.0,54,0.00,,,0.00,meteohub,2013-02-27 00:32:00,
2013-02-26 17:37:00,21.0,7.3,30.05,NW,321,18.0,24.0,55,0.00,,,0.00,meteohub,2013-02-27 00:37:00,
2013-02-26 17:42:00,21.0,7.0,30.05,NNE,19,12.0,25.0,54,0.00,,,0.00,meteohub,2013-02-27 00:42:00,
2013-02-26 17:47:00,20.8,8.1,30.05,NNW,338,15.0,25.0,57,0.00,,,0.00,meteohub,2013-02-27 00:47:00,
2013-02-26 17:52:00,20.5,8.4,30.06,NW,309,11.0,28.0,59,0.00,,,0.00,meteohub,2013-02-27 00:52:00,
2013-02-26 17:57:00,20.1,8.4,30.07,NNW,332,17.0,28.0,60,0.00,,,0.00,meteohub,2013-02-27 00:57:00,
2013-02-26 18:02:00,20.1,8.4,30.08,NNW,333,16.0,28.0,60,0.00,,,0.00,meteohub,2013-02-27 01:02:00,
2013-02-26 18:07:00,19.9,8.6,30.08,NW,309,13.0,26.0,61,0.00,,,0.00,meteohub,2013-02-27 01:07:00,
2013-02-26 18:12:00,20.1,7.7,30.08,NNW,330,17.0,25.0,58,0.00,,,0.00,meteohub,2013-02-27 01:12:00,
2013-02-26 18:17:00,20.1,7.7,30.09,NNW,328,12.0,27.0,58,0.00,,,0.00,meteohub,2013-02-27 01:17:00,
2013-02-26 18:22:00,20.1,7.7,30.09,NNW,330,17.0,27.0,58,0.00,,,0.00,meteohub,2013-02-27 01:22:00,
2013-02-26 18:27:00,20.1,7.3,30.10,NW,317,22.0,25.0,57,0.00,,,0.00,meteohub,2013-02-27 01:27:00,
2013-02-26 18:32:00,19.9,7.5,30.10,NNW,333,14.0,25.0,58,0.00,,,0.00,meteohub,2013-02-27 01:32:00,
2013-02-26 18:37:00,19.8,7.7,30.11,NNW,339,14.0,25.0,59,0.00,,,0.00,meteohub,2013-02-27 01:37:00,
2013-02-26 18:42:00,19.6,7.5,30.11,NW,322,14.0,25.0,59,0.00,,,0.00,meteohub,2013-02-27 01:42:00,
2013-02-26 18:47:00,19.6,7.5,30.11,NNW,334,8.0,23.0,59,0.00,,,0.00,meteohub,2013-02-27 01:47:00,
2013-02-26 18:52:00,19.6,6.8,30.12,NNW,328,6.0,23.0,57,0.00,,,0.00,meteohub,2013-02-27 01:52:00,
2013-02-26 18:57:00,19.6,6.8,30.12,North,5,5.0,23.0,57,0.00,,,0.00,meteohub,2013-02-27 01:57:00,
2013-02-26 19:02:00,19.4,6.6,30.13,NW,322,9.0,20.0,57,0.00,,,0.00,meteohub,2013-02-27 02:02:00,
2013-02-26 19:07:00,19.2,6.4,30.13,NNW,330,7.0,15.0,57,0.00,,,0.00,meteohub,2013-02-27 02:07:00,
2013-02-26 19:12:00,19.2,6.4,30.14,NNW,328,7.0,13.0,57,0.00,,,0.00,meteohub,2013-02-27 02:12:00,
2013-02-26 19:18:00,19.0,5.9,30.14,NNW,338,6.0,12.0,56,0.00,,,0.00,meteohub,2013-02-27 02:18:00,
2013-02-26 19:24:00,18.7,5.9,30.15,NNE,24,9.0,12.0,57,0.00,,,0.00,meteohub,2013-02-27 02:24:00,
2013-02-26 19:30:00,18.1,5.5,30.16,NNW,337,11.0,12.0,57,0.00,,,0.00,meteohub,2013-02-27 02:30:00,
2013-02-26 19:35:00,18.1,4.6,30.16,NNW,333,11.0,14.0,55,0.00,,,0.00,meteohub,2013-02-27 02:35:00,
2013-02-26 19:41:00,18.1,4.6,30.17,NNE,32,10.0,20.0,55,0.00,,,0.00,meteohub,2013-02-27 02:41:00,
2013-02-26 19:46:00,18.3,4.5,30.17,NNW,347,13.0,20.0,54,0.00,,,0.00,meteohub,2013-02-27 02:46:00,
2013-02-26 19:52:00,18.3,4.5,30.17,NW,323,19.0,20.0,54,0.00,,,0.00,meteohub,2013-02-27 02:52:00,
2013-02-26 19:57:00,18.0,4.5,30.18,NW,323,10.0,22.0,55,0.00,,,0.00,meteohub,2013-02-27 02:57:00,
2013-02-26 20:02:00,17.4,4.5,30.18,NW,315,11.0,22.0,56,0.00,,,0.00,meteohub,2013-02-27 03:02:00,
2013-02-26 20:07:00,17.2,3.9,30.18,NNW,329,13.0,22.0,55,0.00,,,0.00,meteohub,2013-02-27 03:07:00,
2013-02-26 20:12:00,17.2,3.9,30.19,NNW,335,10.0,21.0,55,0.00,,,0.00,meteohub,2013-02-27 03:12:00,
2013-02-26 20:17:00,16.5,3.9,30.19,NNW,328,9.0,21.0,57,0.00,,,0.00,meteohub,2013-02-27 03:17:00,
2013-02-26 20:23:00,16.3,3.7,30.20,NNW,335,11.0,20.0,57,0.00,,,0.00,meteohub,2013-02-27 03:23:00,
2013-02-26 20:28:00,16.3,3.7,30.19,NNW,328,9.0,19.0,57,0.00,,,0.00,meteohub,2013-02-27 03:28:00,
2013-02-26 20:34:00,16.5,3.6,30.20,NNW,345,15.0,16.0,56,0.00,,,0.00,meteohub,2013-02-27 03:34:00,
2013-02-26 20:39:00,16.3,3.4,30.21,NNW,329,9.0,17.0,56,0.00,,,0.00,meteohub,2013-02-27 03:39:00,
2013-02-26 20:45:00,16.0,3.7,30.22,NNW,328,11.0,19.0,58,0.00,,,0.00,meteohub,2013-02-27 03:45:00,
2013-02-26 20:50:00,15.6,3.6,30.22,NNW,328,9.0,19.0,58,0.00,,,0.00,meteohub,2013-02-27 03:50:00,
2013-02-26 20:56:00,15.6,3.6,30.22,NNW,337,14.0,16.0,58,0.00,,,0.00,meteohub,2013-02-27 03:56:00,
2013-02-26 21:01:00,15.8,3.2,30.22,NNE,14,13.0,16.0,57,0.00,,,0.00,meteohub,2013-02-27 04:01:00,
2013-02-26 21:07:00,15.4,2.8,30.23,NNW,333,8.0,16.0,57,0.00,,,0.00,meteohub,2013-02-27 04:07:00,
2013-02-26 21:12:00,15.4,3.4,30.23,NNW,328,9.0,16.0,58,0.00,,,0.00,meteohub,2013-02-27 04:12:00,
2013-02-26 21:17:00,15.4,3.4,30.23,NNW,337,8.0,17.0,58,0.00,,,0.00,meteohub,2013-02-27 04:17:00,
2013-02-26 21:22:00,15.3,3.2,30.24,NW,316,9.0,17.0,58,0.00,,,0.00,meteohub,2013-02-27 04:22:00,
2013-02-26 21:28:00,15.3,2.8,30.24,NNW,330,7.0,17.0,57,0.00,,,0.00,meteohub,2013-02-27 04:28:00,
2013-02-26 21:33:00,15.4,3.4,30.24,NW,321,9.0,16.0,58,0.00,,,0.00,meteohub,2013-02-27 04:33:00,
2013-02-26 21:39:00,15.8,3.2,30.25,NW,321,11.0,16.0,57,0.00,,,0.00,meteohub,2013-02-27 04:39:00,
2013-02-26 21:44:00,16.0,3.4,30.25,NNW,329,11.0,17.0,57,0.00,,,0.00,meteohub,2013-02-27 04:44:00,
2013-02-26 21:50:00,15.8,3.2,30.25,NNW,335,11.0,17.0,57,0.00,,,0.00,meteohub,2013-02-27 04:50:00,
2013-02-26 21:55:00,15.8,3.6,30.25,NNW,335,10.0,15.0,58,0.00,,,0.00,meteohub,2013-02-27 04:55:00,
2013-02-26 22:00:00,16.0,3.0,30.25,NW,325,14.0,15.0,56,0.00,,,0.00,meteohub,2013-02-27 05:00:00,
2013-02-26 22:01:00,16.2,3.2,30.25,NNW,337,17.0,22.0,56,0.00,,,0.00,meteohub,2013-02-27 05:01:00,
2013-02-26 22:02:00,16.2,3.2,30.25,NNW,335,15.0,22.0,56,0.00,,,0.00,meteohub,2013-02-27 05:02:00,
2013-02-26 22:07:00,16.2,3.2,30.26,NNW,343,13.0,22.0,56,0.00,,,0.00,meteohub,2013-02-27 05:07:00,
2013-02-26 22:13:00,16.2,2.8,30.26,NNW,333,14.0,22.0,55,0.00,,,0.00,meteohub,2013-02-27 05:13:00,
2013-02-26 22:18:00,16.2,3.2,30.26,NNW,330,10.0,20.0,56,0.00,,,0.00,meteohub,2013-02-27 05:18:00,
2013-02-26 22:24:00,16.0,3.0,30.26,NW,314,14.0,20.0,56,0.00,,,0.00,meteohub,2013-02-27 05:24:00,
2013-02-26 22:29:00,15.6,2.7,30.26,NNW,328,8.0,19.0,56,0.00,,,0.00,meteohub,2013-02-27 05:29:00,
2013-02-26 22:35:00,15.6,2.7,30.27,NNW,328,10.0,18.0,56,0.00,,,0.00,meteohub,2013-02-27 05:35:00,
2013-02-26 22:40:00,15.4,2.8,30.27,NNW,335,11.0,19.0,57,0.00,,,0.00,meteohub,2013-02-27 05:40:00,
2013-02-26 22:46:00,15.3,2.3,30.28,NW,316,12.0,19.0,56,0.00,,,0.00,meteohub,2013-02-27 05:46:00,
2013-02-26 22:51:00,15.1,2.1,30.28,NW,309,8.0,18.0,56,0.00,,,0.00,meteohub,2013-02-27 05:51:00,
2013-02-26 22:57:00,15.1,2.1,30.28,North,353,10.0,18.0,56,0.00,,,0.00,meteohub,2013-02-27 05:57:00,
2013-02-26 23:02:00,14.9,2.1,30.28,NNW,330,11.0,18.0,56,0.00,,,0.00,meteohub,2013-02-27 06:02:00,
2013-02-26 23:07:00,14.7,2.3,30.29,NW,319,8.0,18.0,57,0.00,,,0.00,meteohub,2013-02-27 06:07:00,
2013-02-26 23:12:00,14.2,1.8,30.29,North,355,14.0,18.0,57,0.00,,,0.00,meteohub,2013-02-27 06:12:00,
2013-02-26 23:17:00,14.2,1.8,30.30,NW,321,9.0,18.0,57,0.00,,,0.00,meteohub,2013-02-27 06:17:00,
2013-02-26 23:22:00,14.2,1.4,30.30,NW,321,9.0,15.0,56,0.00,,,0.00,meteohub,2013-02-27 06:22:00,
2013-02-26 23:27:00,13.8,0.7,30.30,NW,326,7.0,16.0,55,0.00,,,0.00,meteohub,2013-02-27 06:27:00,
2013-02-26 23:32:00,13.6,0.5,30.30,NW,314,9.0,16.0,55,0.00,,,0.00,meteohub,2013-02-27 06:32:00,
2013-02-26 23:37:00,13.6,0.5,30.30,NNW,328,7.0,16.0,55,0.00,,,0.00,meteohub,2013-02-27 06:37:00,
2013-02-26 23:42:00,13.3,0.5,30.30,NNW,347,9.0,13.0,56,0.00,,,0.00,meteohub,2013-02-27 06:42:00,
2013-02-26 23:47:00,12.9,0.5,30.30,NNW,328,8.0,13.0,57,0.00,,,0.00,meteohub,2013-02-27 06:47:00,
2013-02-26 23:52:00,12.7,0.3,30.30,NW,316,11.0,13.0,57,0.00,,,0.00,meteohub,2013-02-27 06:52:00,
2013-02-26 23:57:00,12.7,0.0,30.30,North,349,13.0,15.0,56,0.00,,,0.00,meteohub,2013-02-27 06:57:00,